Terug naar catalogus

CZ-6A DEB

ActiefSSO
NORAD 54296·DEBRIS·🇨🇳 China

Gelanceerd Nov 11, 2022 vanaf Taiyuan Satellite Launch Center

Loading…

Volgende Passages (komende 24 uur)

TLE

VersSource: Space-Track

Epoch: Sep 14, 2026, 13:21 UTC

1 54296U 22151AP  26257.55625569  .00001104  00000-0  41626-3 0  9990
2 54296  98.7702 302.7136 0030578 125.9786 234.4240 14.33160538199837

Volg CZ-6A DEB in realtime met AllMySat

Download on the App Store